Home > Time Zones > World Clock > Weather > Russia > Ufa > Past weeks

Flag for Russia Weather past 2 weeks in Ufa, Russia

Now
-2 °F

Passing clouds.


Feels Like: -10 °F
Forecast: -6 / 1 °F
Wind: 3 mph from South

Location: Ufa

Current Time: Jan 26, 2015 at 8:16:35 PM

Latest Report: Jan 26, 2015 at 7:30 PM


Visibility: N/A

Pressure: 30.74 "Hg

Humidity: 71%

Dew point: -9 °F

Location of UfaLocation

Historic Weather in Ufa — Graph

°F

Ufa temperature yesterday

Maximum temperature yesterday: 7 °F (at 7:30 PM)
Minimum temperature yesterday: -20 °F (at 12:00 AM)
Average temperature yesterday: -3 °F

Past Weeks' High & Low Weather Summary

 TemperatureHumidityPressure
High34 °F (Jan 15, 8:30 AM)100% (Jan 13, 1:30 AM)30.92 "Hg (Jan 13, 1:30 AM)
Low-24 °F (Jan 24, 9:30 AM)66% (Jan 26, 2:00 PM)29.50 "Hg (Jan 13, 6:00 AM)
Average13 °F85%30.20 "Hg
* Reported Jan 11 7:00 PM — Jan 26 7:00 PM, Ufa, Weather by CustomWeather, © 2014

Note: Actual official high and low records may vary slightly from our data, if they occured in-between our weather recording intervals... More about our weather records

Advertising

Ufa weather history for previous 24 hours

 ConditionsComfort  
Time TempWeatherWind HumidityBarometerVisibility
7:00 PM
Jan 26
0 °FSunny.3 mph71%30.74 "Hg10 mi
6:30 PM-2 °FPassing clouds.6 mph77%30.74 "HgN/A
6:00 PM1 °FPassing clouds.3 mph71%30.74 "HgN/A
5:30 PM1 °FPassing clouds.3 mph71%30.74 "HgN/A
5:00 PM3 °FPassing clouds.6 mph72%30.77 "HgN/A
4:30 PM5 °FPassing clouds.3 mph66%30.77 "HgN/A
4:00 PM5 °FSunny.3 mph72%30.77 "Hg10 mi
3:30 PM5 °FPassing clouds.3 mph72%30.77 "HgN/A
3:00 PM5 °FSunny.6 mph66%30.77 "Hg10 mi
2:30 PM5 °FSunny.3 mph66%30.80 "Hg10 mi
2:00 PM5 °FPassing clouds.3 mph66%30.80 "HgN/A
1:30 PM3 °FSunny.8 mph72%30.80 "Hg10 mi
1:00 PM1 °FSunny.8 mph71%30.80 "Hg10 mi
12:30 PM1 °FSunny.6 mph71%30.80 "Hg10 mi
12:00 PM1 °FPassing clouds.6 mph71%30.80 "HgN/A
11:30 AM0 °FPassing clouds.6 mph78%30.80 "HgN/A
11:00 AM0 °FClear.6 mph71%30.80 "Hg10 mi
10:30 AM-2 °FClear.6 mph77%30.80 "Hg10 mi
10:00 AM0 °FClear.8 mph78%30.83 "Hg10 mi
9:30 AM0 °FClear.8 mph78%30.80 "Hg10 mi
9:00 AM0 °FClear.8 mph78%30.80 "Hg10 mi
8:30 AM0 °FClear.8 mph78%30.80 "Hg10 mi
8:00 AM0 °FPassing clouds.3 mph84%30.80 "HgN/A
7:30 AM0 °FPassing clouds.6 mph78%30.80 "HgN/A
7:00 AM1 °FPassing clouds.6 mph78%30.80 "HgN/A
6:30 AM3 °FClear.8 mph78%30.80 "Hg10 mi
6:00 AM5 °FClear.8 mph78%30.80 "Hg10 mi
5:30 AM7 °FOvercast.8 mph78%30.80 "HgN/A
5:00 AM7 °FOvercast.8 mph78%30.83 "HgN/A
4:30 AM7 °FOvercast.8 mph78%30.83 "HgN/A
4:00 AM7 °FOvercast.8 mph78%30.83 "HgN/A
3:30 AM7 °FOvercast.8 mph72%30.83 "HgN/A
3:00 AM7 °FOvercast.10 mph78%30.83 "HgN/A
2:30 AM7 °FOvercast.8 mph72%30.83 "HgN/A
1:30 AM7 °FOvercast.10 mph72%30.83 "HgN/A
1:00 AM7 °FOvercast.13 mph72%30.83 "HgN/A
12:30 AM7 °FOvercast.10 mph72%30.83 "HgN/A
12:00 AM7 °FOvercast.10 mph72%30.86 "HgN/A
11:30 PM
Jan 25
7 °FOvercast.13 mph72%30.86 "HgN/A
11:00 PM7 °FOvercast.10 mph72%30.86 "HgN/A
10:30 PM7 °FOvercast.10 mph72%30.83 "HgN/A
10:00 PM7 °FOvercast.10 mph72%30.83 "HgN/A
9:30 PM7 °FOvercast.13 mph72%30.83 "HgN/A
9:00 PM7 °FOvercast.13 mph72%30.83 "HgN/A
8:30 PM7 °FOvercast.15 mph78%30.86 "HgN/A
8:00 PM7 °FOvercast.15 mph72%30.86 "HgN/A
Weather by CustomWeather, © 2014

See weather overviewHow to use our weather pages